Location: Newark
(44.3449°N, 4.8694°E)
Time: 21:08:46
(UTC+00:00)

Envisat - Pass Details

Date: 21 January 2020
Orbit: 764 x 766 km, 98.1° (Epoch: 23 February)

Event Time Altitude Azimuth Distance (km) Brightness Sun altitude
Rises 18:15:46 0° 192° (SSW) 3,219 6.5 -17.9°
Reaches altitude 10° 18:18:17 10° 202° (SSW) 2,298 5.9 -18.4°
Maximum altitude 18:22:47 32° 265° (W) 1,307 4.9 -19.2°
Drops below altitude 10° 18:27:19 10° 327° (NNW) 2,313 5.8 -20.0°
Sets 18:29:52 0° 338° (NNW) 3,244 6.4 -20.4°
